Torna al catalogo

FENGYUN 1C DEB

AttivoSSO
NORAD 29779·DEBRIS·🇨🇳 China

Lanciato May 10, 1999 da Taiyuan Satellite Launch Center

Loading…

Prossimi Passaggi (prossime 24 ore)

TLE

AggiornatoSource: Space-Track

Epoca: Sep 13, 2026, 22:36 UTC

1 29779U 99025BV  26256.94180305  .00000239  00000-0  14581-3 0  9996
2 29779  98.6735 264.9473 0064251  99.5247 261.3195 14.13670102 13010

Traccia FENGYUN 1C DEB in tempo reale con AllMySat

Download on the App Store